Location: Chuathbaluk
(61.5726°N, 159.2454°W)
Time: 13:51:00
(UTC+00:00)

NUDT-PHONESAT - Pass Details

Date: 23 January 2021
Orbit: 480 x 498 km, 97.4° (Epoch: 01 March)

Event Time Altitude Azimuth Distance (km) Brightness Sun altitude
Rises 04:22:08 0° 174° (S) 2,574 ? -13.9°
Reaches altitude 10° 04:24:13 10° 178° (S) 1,699 ? -14.1°
Maximum altitude 04:27:50 56° 258° (WSW) 601 ? -14.5°
Drops below altitude 10° 04:31:29 10° 338° (NNW) 1,720 ? -15.0°
Sets 04:33:37 0° 342° (NNW) 2,611 ? -15.2°
